Showing default

KUIPER-00236, 68582

Orbit data source: Space-Track

KUIPER-00236, 68582 is a payload satellite owned by Kuiper Systems (US) in LEO that was launched on Sat, 04 Apr 2026 UTC via an ATLAS V 551 launch vehicle from the Air Force Eastern Test Range (AFETR). Payload-class satellites include a variety of spacecraft equipped with specific instruments for various scientific and technological missions. These include communications satellites like Starlink; space stations such as the ISS; scientific satellites like the Hubble; Earth observation satellites from companies like Planet Labs, Umbra, and HawkEye 360; GPS; miniature CubeSats for education and research; and military/defense satellites.

Loading next visibility...
Identifier
68582, 2026-072K
Orbit
LEO
Country
Flag of USUS
Related business
Manufacturer
Kuiper Systems
Mission
Operational spacecraft
Bus & Motor
KUIPER, Unknown motor
Mass
~490 kg wet, ~490 kg dry
Launch date (UTC)
2026-04-04 (1 month ago)
Launch vehicle
ATLAS V 551
Launch site
Air Force Eastern Test Range (AFETR)
Object type
Payload
Rocket body
Debris
Shape & HBR
Unknown shape, 3.4 m
Radar Cross Section
RCS unknown

Expand to show TLE details & history
Last TLE update: 7 hours ago

TLE from 7 hours ago
0 KUIPER-00236
1 68582U 26072K   26132.11676139  .00011485  00000-0  32820-3 0  9991
2 68582  51.8783 351.1817 0002664 200.0659 160.0223 15.36454862  5833
Epoch: 2026-05-12T02:48Z
TLE epoch observation values (Epoch: 2026-05-12T02:48:08.184Z)
Latitude
-0.00001°
Longitude
79.25185°
Altitude
459.077 km
Speed
7.638 km/s
True Right ascension
23h 24m 43s
True Declination
0° 00' 00"
Sunlit
Object was in daylight at epoch
Visualization orbit readout
Latitude
Unknown
Longitude
Unknown
Altitude
Unknown
Speed
Unknown
Apparent Right ascension
Unknown
Apparent Declination
Unknown
Sunlit
N/A
Visualization observer readout
Local Sidereal Time
18:37:12
Azimuth
Unknown
Elevation
Unknown
Doppler factor
Unknown
Orbital elements
Apogee altitude
458.889 km
Perigee altitude
455.248 km
Semi-major axis
6,835.205 km
Eccentricity
0.00027
Inclination
51.8783°
RAAN
351.1817°
Arg. of periapsis
200.0659°
True anomaly
160.03273°
Mean anomaly
160.0223°
Eccentric anomaly
160.02751°
Mean motion
3.84075 °/min
Orbital period
93.73 mins
BSTAR
0.0003282
Loading maneuver chart data...
Computing Atmospheric mass density...
Loading historical data...
Loading historical data...
Loading historical data...
Loading historical data...
Loading historical data...
Loading historical data...
Loading historical data...

Documentation

Showing up to 5 results
|